Regional Weather Roundup
Issued by NWS

Home | Current Version | Previous Version | Text Only | Print | Product List | Glossary Off
Versions: 1 2 3 4 5 6 7 8 9 10 11 12 13 14 15 16 17 18 19 20 21 22 23 24 25 26 27 28 29 30 31 32 33 34 35 36 37 38 39 40 41 42 43 44 45 46 47 48 49 50

000
ASUS43 KLMK 181310
RWRKY
KENTUCKY REGIONAL WEATHER ROUNDUP
NATIONAL WEATHER SERVICE LOUISVILLE KY
800 AM EST THU DEC 18 2014

NOTE "FAIR" INDICATES FEW OR NO CLOUDS BELOW 12,000 FEET
WITH NO SIGNIFICANT WEATHER AND/OR OBSTRUCTIONS TO VISIBILITY.

KYZ001>023-026-027-061>063-070>075-181400-
WESTERN AND SOUTH CENTRAL KENTUCKY

CITY           SKY/WX    TMP DP  RH WIND       PRES   REMARKS
PADUCAH        CLOUDY    33  31  92 NE6       30.25S WCI  28
HENDERSON      CLOUDY    30  25  80 NE6       30.28S WCI  24
OWENSBORO      CLOUDY    31  26  81 NE6       30.29S WCI  25
HOPKINSVILLE   CLOUDY    32  29  88 NE2       30.26R
BOWLING GREEN  MOCLDY    31  26  82 CALM      30.27R
GLASGOW        CLOUDY    30  26  88 NE3       30.23F
$$

KYZ024-025-028>034-038-045-046-053-181400-
NORTH CENTRAL KENTUCKY

CITY           SKY/WX    TMP DP  RH WIND       PRES   REMARKS
LOUISVILLE/SDF CLOUDY    30  22  72 E5        30.28S WCI  25
LOUISVILLE/LOU CLOUDY    29  22  75 E5        30.29R WCI  24
FORT KNOX      CLOUDY    28  23  80 NE3       30.26S
$$

KYZ035>037-039>044-047>052-055>060-089>105-181400-
NORTHEAST KENTUCKY

CITY           SKY/WX    TMP DP  RH WIND       PRES   REMARKS
LEXINGTON      CLOUDY    28  22  78 NE5       30.26S WCI  23
COVINGTON      CLOUDY    26  18  71 CALM      30.27R
FRANKFORT      CLOUDY    28  21  75 CALM      30.26F
$$

KYZ054-064>069-076>088-106>120-181400-
SOUTHEAST KENTUCKY

CITY           SKY/WX    TMP DP  RH WIND       PRES   REMARKS
JACKSON        CLOUDY    28  23  81 CALM      30.23R
LONDON         CLOUDY    29  24  82 CALM      30.24R
SOMERSET       CLOUDY    28  28 100 NE5       30.27S WCI  23
MIDDLESBORO    CLOUDY    31  29  93 CALM      30.24R
MONTICELLO     PTSUNNY   30  28  92 NE5       30.26F FOG     WCI  25
$$



USA.gov is the U.S. government's official web portal to all federal, state and local government web resources and services.